Change the Weather History Date:

Wednesday, August 28, 2013

  Actual Average Record
Temperature  
Mean Temperature 77 °F 74 °F  
Max Temperature 91 °F 89 °F 106 °F (1990)
Min Temperature 62 °F 59 °F 44 °F (1933)
Degree Days  
Heating Degree Days 0 0  
Month to date heating degree days 0 0  
Since 1 June heating degree days 0 17  
Since 1 July heating degree days 0 0  
Cooling Degree Days 12 9  
Month to date cooling degree days 352 347  
Year to date cooling degree days 1420 1140  
Since 1 June cooling degree days 1340 1076  
Growing Degree Days 26 (Base 50)    
Moisture  
Dew Point 56 °F    
Average Humidity 58    
Maximum Humidity 93    
Minimum Humidity 23    
Precipitation  
Precipitation 0.00 in 0.03 in 1.50 in (1939)
Month to date precipitation 1.16 0.74  
Year to date precipitation 3.85 5.28  
Sea Level Pressure  
Sea Level Pressure 29.94 in    
Wind  
Wind Speed 3 mph (WNW)    
Max Wind Speed 15 mph    
Max Gust Speed 20 mph    
Visibility 10 miles    
Events      
T = Trace of Precipitation, MM = Missing Value Source: NWS Daily Summary

Daily Weather History Graph

Daily Weather History Graph

Search for Another Location

Airport or City:

Trip Planner

Search our weather history database for the weather conditions in past years. The results will help you decide how hot, cold, wet, or windy it might be!

Date:

Astronomy

Aug. 28, 2013 Rise Set
Actual Time 6:44 AM MDT 7:54 PM MDT
Civil Twilight 6:17 AM MDT 8:22 PM MDT
Nautical Twilight 5:44 AM MDT 8:54 PM MDT
Astronomical Twilight 5:10 AM MDT 9:28 PM MDT
Moon No Moon Rise 2:33 PM MDT (8/28)
Length of Visible Light 14h 04m
Length of Day
13h 09m
Waning Gibbous, 47% of the Moon is Illuminated
Aug 28
Waning Gibbous
Sep 5
New
Sep 12
First Quarter
Sep 19
Full
Sep 26
Last Quarter

Hourly Weather History & Observations

Time (MDT) Temp. Heat Index Dew Point Humidity Pressure Visibility Wind Dir Wind Speed Gust Speed Precip Events Conditions
12:53 AM 68.0 °F - 62.1 °F 81% 29.94 in 10.0 mi Calm Calm - N/A   Clear
1:53 AM 66.0 °F - 63.0 °F 90% 29.94 in 10.0 mi Calm Calm - N/A   Clear
2:53 AM 66.0 °F - 62.1 °F 87% 29.95 in 10.0 mi Calm Calm - N/A   Clear
3:53 AM 66.0 °F - 62.1 °F 87% 29.94 in 10.0 mi Calm Calm - N/A   Clear
4:53 AM 64.0 °F - 61.0 °F 90% 29.94 in 10.0 mi Calm Calm - N/A   Clear
5:53 AM 63.0 °F - 61.0 °F 93% 29.95 in 10.0 mi Calm Calm - N/A   Clear
6:53 AM 63.0 °F - 59.0 °F 87% 29.96 in 10.0 mi WSW 3.5 mph - N/A   Clear
7:53 AM 66.9 °F - 60.1 °F 79% 29.98 in 10.0 mi Calm Calm - N/A   Clear
8:53 AM 70.0 °F - 60.1 °F 71% 29.99 in 10.0 mi SSE 4.6 mph - N/A   Clear
9:53 AM 73.9 °F - 57.9 °F 57% 30.00 in 10.0 mi Calm Calm - N/A   Clear
10:53 AM 78.1 °F - 57.9 °F 50% 30.00 in 10.0 mi Calm Calm - N/A   Clear
11:53 AM 80.1 °F 80.4 °F 57.0 °F 45% 30.00 in 10.0 mi Calm Calm - N/A   Clear
12:53 PM 82.9 °F 82.1 °F 55.9 °F 39% 29.97 in 10.0 mi Calm Calm - N/A   Clear
1:53 PM 84.9 °F 83.6 °F 55.0 °F 36% 29.96 in 10.0 mi Calm Calm - N/A   Clear
2:53 PM 89.1 °F - 52.0 °F 28% 29.91 in 10.0 mi WNW 5.8 mph - N/A   Clear
3:53 PM 89.1 °F - 48.9 °F 25% 29.89 in 10.0 mi Variable 3.5 mph - N/A   Clear
4:53 PM 90.0 °F - 46.0 °F 22% 29.88 in 10.0 mi West 8.1 mph 16.1 mph N/A   Clear
5:53 PM 90.0 °F - 48.0 °F 24% 29.88 in 10.0 mi West 13.8 mph 19.6 mph N/A   Clear
6:53 PM 89.1 °F - 46.9 °F 23% 29.88 in 10.0 mi NW 10.4 mph - N/A   Clear
7:53 PM 86.0 °F - 48.9 °F 28% 29.88 in 10.0 mi WNW 9.2 mph - N/A   Clear
8:53 PM 79.0 °F - 50.0 °F 36% 29.91 in 10.0 mi NW 6.9 mph - N/A   Clear
9:53 PM 77.0 °F - 51.1 °F 40% 29.93 in 10.0 mi NW 6.9 mph - N/A   Clear
10:53 PM 73.0 °F - 55.0 °F 53% 29.94 in 10.0 mi Calm Calm - N/A   Clear
11:53 PM 73.9 °F - 52.0 °F 46% 29.94 in 10.0 mi Calm Calm - N/A   Clear